Regional Weather Roundup
Issued by NWS

Home | Current Version | Previous Version | Text Only | Print | Product List | Glossary Off
Versions: 1 2 3 4 5 6 7 8 9 10 11 12 13 14 15 16 17 18 19 20 21 22 23 24 25 26 27 28 29 30 31 32 33 34 35 36 37 38 39 40 41 42 43 44 45 46 47 48 49 50

000
ASUS43 KDTX 300110
RWRMI
MICHIGAN HOURLY REGIONAL WEATHER ROUNDUP
NATIONAL WEATHER SERVICE DETROIT/PONTIAC MI
900 PM EDT MON AUG 29 2016

NOTE: "FAIR" INDICATES FEW OR NO CLOUDS BELOW 12,000 FEET WITH NO
SIGNIFICANT WEATHER AND/OR OBSTRUCTION TO VISIBILITY.

MIZ047>049-052>055-059>063-066>070-074>076-081>083-300200-
SOUTHEAST LOWER MICHIGAN

CITY           SKY/WX    TMP DP  RH WIND       PRES   REMARKS
ADRIAN         PTCLDY    72  68  87 SE5       30.23R
ALMA           CLEAR     71  69  94 CALM      30.21S
ANN ARBOR      CLEAR     70  67  90 S3        30.22R
BAD AXE        CLEAR     65  60  84 CALM      30.23S
CARO           CLEAR     67  67  97 CALM      30.21S
DETROIT CITY   CLEAR     76  61  59 CALM      30.22R
DETROIT        PTCLDY    75  68  78 S6        30.23R
FLINT          CLEAR     72  64  76 CALM      30.22R
GROSSE ILE     CLEAR     72  67  85 CALM      30.21R
HILLSDALE      CLEAR     70  67  89 SE3       30.22R
HOWELL         CLEAR     72  66  82 CALM      30.22S HAZE

CITY           SKY/WX    TMP DP  RH WIND       PRES   REMARKS
JACKSON        CLEAR     76  68  76 SE3       30.22S
LAMBERTVILLE   CLEAR     69  66  90 CALM      30.23R
LANSING        CLEAR     73  66  78 CALM      30.21S
LAPEER         FAIR      69  66  91 CALM      30.23R
MASON          CLEAR     71  67  87 CALM      30.22S
MONROE         CLEAR     69  67  95 CALM      30.21R
MT. CLEMENS    PTCLDY    74  66  76 E5        30.20R
PONTIAC        PTCLDY    77  63  61 SE5       30.22R
PORT HURON     CLEAR     63  61  94 CALM      30.22S
TRI CITIES     CLEAR     74  67  78 CALM      30.22R
MIDLAND        FAIR      69  67  93 CALM      30.21R
TROY           CLEAR     78  58  50 CALM      30.24R
SAGINAW HB     CLEAR     72  64  78 CALM      30.21S HAZE
$$
MIZ043>046-050>051-056>058-064>065-071>073-077>080-300200-
SOUTHWEST LOWER MICHIGAN

CITY           SKY/WX    TMP DP  RH WIND       PRES   REMARKS
BATTLE CREEK   CLEAR     74  70  87 S3        30.21S
BENTON HARBOR  PTCLDY    76  71  85 CALM      30.18S
BIG RAPIDS     CLEAR     72  69  90 CALM      30.21S
COLDWATER      CLEAR     73  71  95 CALM      30.21R
FREMONT        FAIR      72  70  93 CALM      30.20S FOG
HOLLAND        PTCLDY    74  69  85 CALM      30.20S
GRAND RAPIDS   PTCLDY    77  68  73 S5        30.20S
IONIA          FAIR      72  66  81 E5        30.20S
KALAMAZOO      CLEAR     77  69  76 CALM      30.20S
LUDINGTON      MOCLDY    70  69  97 CALM      30.19S
MARSHALL       CLEAR     73  71  94 CALM      30.21S
MOUNT PLEASANT CLEAR     70  68  94 CALM      30.21S
MUSKEGON       MOCLDY    73  70  90 CALM      30.19S
SOUTH HAVEN    CLOUDY    75  73  94 CALM      30.19S
$$
MIZ016>042-300200-
NORTHERN LOWER MICHIGAN

CITY           SKY/WX    TMP DP  RH WIND       PRES   REMARKS
ALPENA         CLEAR     67  59  75 CALM      30.20S
BEAVER ISLAND  CLEAR     70  66  89 S3        30.17F
BELLAIRE       CLEAR     70  66  88 CALM      30.19S
CADILLAC       CLEAR     73  66  79 S6        30.21S
CHARLEVOIX     PTCLDY    71  67  87 SW5       30.21S
FRANKFORT      PTCLDY    72  67  85 CALM      30.19S
GAYLORD        PTCLDY    73  63  70 SW6       30.22R
GRAYLING       CLEAR     72  65  77 CALM      30.22S
HARBOR SPRINGS CLEAR     71  64  79 W5        30.18S
HOUGHTON LAKE  CLEAR     71  64  78 S3        30.23S
MANISTEE       MOCLDY    71  69  93 CALM      30.19S
OSCODA         CLEAR     68  61  78 CALM      30.20S
PELLSTON       CLOUDY    72  61  68 W5        30.18S
ROGERS CITY    CLOUDY    69  60  71 S5        30.20R
TRAVERSE CITY  MOCLDY    76  68  76 CALM      30.18R
$$
MIZ007>008-015-300200-
EASTERN UPPER MICHIGAN

CITY           SKY/WX    TMP DP  RH WIND       PRES   REMARKS
KINROSS        CLOUDY    67  60  78 S7        30.19R
MACKINAC ISLAN PTCLDY    66  60  81 SE6       30.18R
NEWBERRY       CLOUDY    68  64  87 S7        30.15F
S. S. MARIE    CLOUDY    68  59  73 SE7       30.17S
$$
MIZ004>006-011>014-085-300200-
CENTRAL UPPER MICHIGAN

CITY           SKY/WX    TMP DP  RH WIND       PRES   REMARKS
MANISTIQUE     PTCLDY    69  66  92 SW3       30.14F
ESCANABA       PTCLDY    73  69  87 S6        30.13F
MENOMINEE      PTCLDY   N/A N/A N/A S6          N/A
SAWYER-GWINN   CLEAR     73  68  83 S7        30.14S
$$
MIZ001>003-009>011-084-300200-
WESTERN UPPER MICHIGAN

CITY           SKY/WX    TMP DP  RH WIND       PRES   REMARKS
IRON MOUNTAIN  CLOUDY    73  69  87 CALM      30.13F
HOUGHTON       CLEAR     68  60  75 NW7       30.09F
IRONWOOD       CLOUDY    73  70  88 CALM      30.12S
$$

ABBREVIATIONS USED IN REMARKS
   TC - TEMPERATURE IN CELSIUS
  WCI - WIND CHILL INDEX
   HX - HEAT INDEX
  VSB - VISIBILITY





USA.gov is the U.S. government's official web portal to all federal, state and local government web resources and services.